Temperature
21 20 18 16 15 15 15 15 14 14 14 14 14 13 13 13 13 13 13 12 12 12 12 12 12 13 13 13 13 12 12 12 12 13 13 13 13 12 12 13 13 13 14
21 20 18 16 15 15 15 15 14 14 14 13 13 12 12 12 12 12 12 12 12 12 12 11 11 12 12 12 12 12 12 12 12 13 13 13 13 13 13 13 13 12 13
21 20 18 16 15 15 15 14 14 14 13 13 13 11 11 12 12 12 12 12 12 12 12 12 11 11 11 12 12 12 11 11 12 13 13 12 12 13 13 13 13 12 12
21 20 18 16 15 15 15 14 14 13 13 13 12 11 12 12 12 12 12 12 12 13 13 13 12 12 12 11 11 11 11 11 12 13 12 11 12 12 13 13 12 12 12
21 19 18 17 15 15 15 14 14 13 13 13 13 12 12 12 12 12 12 12 12 13 13 13 13 12 11 11 11 11 11 11 11 12 11 11 11 12 13 12 11 11 11
20 19 18 16 15 15 14 14 14 13 13 13 13 12 12 12 12 12 12 12 12 12 13 13 13 12 12 12 11 11 10 10 11 10 11 11 11 11 12 12 11 11 11
19 18 17 17 15 15 14 14 13 13 13 13 12 12 12 13 13 12 12 12 12 12 12 12 12 11 11 11 11 11 11 11 10 10 11 11 11 11 12 12 11 11 11
19 18 17 17 15 15 14 14 13 13 13 13 13 12 12 13 13 12 12 12 11 11 11 11 11 11 11 10 10 11 11 11 10 10 10 11 12 12 11 11 11 10 11
20 18 17 16 16 15 14 14 13 13 13 13 13 13 12 12 12 12 12 11 11 11 12 11 11 11 10 10 10 10 11 11 11 10 10 11 12 12 12 11 11 11 11
21 19 17 16 15 15 14 14 14 13 13 13 13 13 13 13 12 12 12 12 12 12 13 13 12 12 11 11 12 12 12 12 12 11 11 12 13 13 12 12 12 11 11
21 20 19 17 16 15 15 15 15 14 14 14 14 14 14 13 12 12 13 13 13 14 14 14 14 13 13 13 13 13 13 13 12 12 13 13 14 13 13 13 13 12 12
20 20 20 19 17 16 16 16 15 15 14 14 13 13 13 13 13 13 14 14 14 14 14 14 14 14 13 13 12 13 13 12 12 12 13 14 14 14 14 13 13 13 13
20 20 20 19 18 17 17 16 16 15 15 14 14 14 14 14 14 14 14 14 14 14 14 14 14 13 13 12 13 12 12 12 12 12 13 13 13 13 13 13 14 13 13
20 20 19 19 19 18 17 17 16 16 15 15 15 14 14 14 14 14 14 14 14 13 13 13 13 12 12 12 12 12 12 12 12 12 13 14 14 13 13 13 13 13 13
21 20 20 20 19 18 18 17 17 16 15 15 15 14 14 14 14 13 14 13 13 13 13 13 13 12 12 12 12 12 12 12 12 12 12 14 14 14 13 13 13 13 13
21 21 20 20 20 19 18 18 17 16 15 15 14 14 14 14 14 13 13 13 13 13 13 13 13 13 13 13 13 13 12 12 12 12 12 12 13 14 13 13 13 13 13
21 21 21 21 20 20 19 18 17 16 15 15 14 14 14 14 14 13 14 14 13 13 13 13 13 13 13 12 12 12 12 12 12 12 12 12 12 13 13 13 13 13 13
20 20 20 20 20 19 18 18 17 16 15 15 15 14 14 14 14 14 14 14 13 13 13 13 12 12 12 11 11 11 11 11 11 11 12 12 12 12 12 13 13 13 12
19 19 19 19 19 19 18 17 17 16 16 15 15 14 14 14 14 14 13 13 12 12 12 12 12 11 11 11 11 11 11 11 11 11 11 11 11 11 12 12 12 13 13
18 18 18 18 18 18 17 17 16 16 15 15 14 14 14 13 13 13 12 12 12 12 12 11 11 11 10 10 10 10 10 10 11 11 11 11 11 10 10 11 11 11 12
17 18 18 18 17 17 17 16 15 15 14 13 13 13 13 12 12 12 12 12 12 11 11 11 10 10 10 9 9 9 10 11 11 11 11 10 11 10 10 10 10 10 10
17 17 17 17 17 16 16 15 15 14 13 12 12 12 12 12 12 12 11 11 11 11 11 10 10 9 9 8 8 8 9 10 11 10 10 10 10 10 10 10 10 9 9
16 17 17 16 16 15 15 14 14 13 12 12 12 11 11 11 11 11 11 11 10 10 9 9 8 8 7 7 7 6 7 8 7 7 8 8 8 9 9 9 9 9 9
15 15 15 15 15 14 13 13 13 12 12 11 11 11 11 11 11 10 10 10 9 9 8 8 7 7 6 5 5 5 5 5 5 6 6 7 7 7 7 7 7 7 8
14 14 14 14 14 13 12 12 12 12 11 10 10 10 10 10 10 10 9 9 8 7 7 7 6 6 5 5 4 4 4 4 4 4 4 5 5 5 5 6 6 6 6
13 13 13 13 13 12 12 12 11 11 10 10 10 10 10 10 9 9 8 7 7 7 6 6 6 5 5 4 4 3 3 2 3 3 3 3 4 4 4 4 5 5 5
Wind_Speed
7 10 14 13 14 13 13 12 10 8 6 4 2 4 5 6 6 4 2 2 4 4 5 5 3 2 3 3 4 3 2 3 3 3 5 7 7 6 2 2 5 5 0
7 12 14 13 14 12 13 12 10 8 6 4 3 3 4 3 2 2 2 2 2 3 5 7 7 3 3 3 2 1 1 0 1 3 6 7 5 5 5 5 6 6 4
7 12 15 14 13 12 14 13 11 8 6 5 4 3 3 4 3 2 2 2 2 3 5 6 9 7 5 4 2 1 2 3 4 5 8 9 6 4 7 7 7 8 7
8 12 14 14 13 13 14 13 11 9 7 5 5 4 5 5 4 3 2 1 1 3 4 6 6 8 7 7 5 2 3 6 7 7 10 8 8 5 8 9 9 8 6
8 11 12 13 13 14 13 12 11 9 7 6 5 6 6 6 6 4 2 0 2 3 4 5 6 6 7 7 7 5 6 7 6 9 10 10 10 7 9 10 10 11 8
8 10 11 12 12 12 12 12 10 8 7 6 6 7 7 7 7 5 3 1 1 3 4 5 6 6 7 8 9 10 10 9 7 11 10 11 10 8 11 12 12 12 12
7 9 10 12 10 11 12 11 9 7 6 6 6 7 8 8 7 6 4 1 2 4 5 6 7 8 8 9 10 11 11 10 11 12 11 11 11 10 13 14 14 13 14
7 8 9 11 8 10 11 10 9 8 7 7 7 7 7 6 5 5 4 2 4 5 7 7 8 9 9 10 11 12 12 12 13 13 12 12 11 13 15 16 16 15 15
6 7 7 9 11 11 11 11 10 9 8 8 7 7 5 2 2 1 2 4 6 7 8 9 11 11 11 11 12 12 12 12 15 14 13 12 10 13 17 18 18 18 17
6 7 7 8 8 10 11 12 11 11 10 9 8 7 4 3 3 2 4 4 6 9 9 11 12 13 13 12 13 13 12 13 15 14 12 12 12 16 18 20 20 20 19
7 8 8 8 9 9 9 9 12 13 12 11 10 9 7 8 8 6 6 4 7 10 11 12 13 14 14 14 14 13 12 13 13 12 13 13 16 19 21 21 22 22 22
10 10 9 10 10 10 8 9 9 10 9 10 9 7 7 7 7 8 5 7 10 11 13 14 15 15 15 12 11 11 11 12 13 12 13 15 19 21 22 23 24 25 25
9 10 10 11 10 10 8 8 7 7 7 8 9 8 7 7 7 7 7 7 10 10 11 10 11 11 11 11 11 11 12 13 11 12 14 16 21 23 24 25 26 27 27
9 10 10 11 11 11 10 8 7 6 6 6 7 8 6 5 6 6 6 8 8 7 8 8 8 11 12 13 14 14 14 12 13 13 15 16 21 24 26 26 27 28 29
7 8 9 11 12 11 11 9 7 7 7 7 6 7 7 6 6 6 6 7 8 8 8 8 9 11 12 12 12 14 15 16 16 16 15 17 22 25 27 27 28 29 30
5 6 7 10 12 12 11 9 8 7 6 6 6 6 6 6 6 6 7 7 8 8 8 8 10 11 11 11 13 14 16 16 16 17 17 17 19 24 27 29 29 30 31
4 5 5 7 10 11 11 9 6 5 5 5 5 5 6 6 6 6 7 7 7 8 9 9 10 10 10 11 13 14 14 15 16 17 17 16 16 19 25 28 30 31 31
4 4 4 2 5 7 6 4 3 2 2 3 3 4 5 5 6 6 6 7 8 8 7 8 9 10 10 11 12 12 13 13 17 17 16 16 15 15 17 23 27 29 30
6 7 7 6 5 6 6 5 4 3 3 3 3 4 5 6 5 4 5 6 8 6 6 7 8 9 11 12 12 13 13 14 16 16 17 17 16 16 16 16 20 25 28
9 10 11 11 10 10 9 9 8 9 9 9 9 11 12 11 11 8 7 9 9 7 8 9 10 10 10 11 13 13 14 15 15 15 16 15 15 16 17 18 16 15 21
12 13 13 13 11 10 9 9 10 10 10 11 12 15 15 15 14 11 8 9 9 8 9 10 9 12 11 12 13 14 15 15 14 13 12 14 17 17 18 18 16 15 12
14 14 14 14 13 12 11 10 10 11 10 10 10 13 14 14 13 10 10 8 9 8 9 10 10 9 9 11 12 14 12 14 12 14 17 17 18 17 18 18 17 17 16
14 14 14 15 15 14 14 11 10 9 8 8 9 9 11 13 13 11 10 9 9 8 8 10 10 10 11 11 11 9 10 12 18 14 15 15 18 17 18 18 21 21 21
12 13 15 16 16 14 13 12 12 10 9 7 7 7 9 11 12 12 11 10 9 8 9 9 10 9 10 10 10 8 11 15 13 15 15 16 18 19 20 19 20 21 21
11 12 14 16 16 14 14 13 13 11 8 6 6 7 7 8 10 11 10 9 9 8 9 10 10 10 9 10 10 11 12 13 15 18 21 19 18 17 18 19 19 19 20
11 11 12 15 14 13 13 13 12 11 9 8 8 7 6 6 6 10 9 9 9 8 9 10 10 11 10 11 10 10 11 12 14 16 20 22 21 19 19 18 18 17 17
Wind_Direction
177 173 169 183 175 170 164 157 155 154 153 141 150 152 131 128 124 117 102 74 58 29 13 5 360 31 61 84 94 90 90 92 68 30 348 331 336 334 320 319 292 252 157
152 167 170 183 176 174 168 160 159 161 164 166 176 191 173 168 157 134 88 79 58 35 25 17 9 15 50 59 80 71 359 108 15 336 329 295 272 306 291 290 307 317 295
150 165 171 181 178 176 166 162 163 170 180 194 198 209 212 218 214 185 130 96 53 35 21 5 8 14 27 6 325 318 322 307 301 316 304 274 257 257 283 283 289 298 274
158 166 175 169 174 170 167 165 169 179 192 211 225 236 238 232 226 224 202 138 25 18 11 359 358 8 6 353 334 302 310 304 298 309 283 280 272 244 269 274 270 276 270
164 170 168 166 173 173 174 173 177 186 200 218 239 261 273 243 227 224 226 164 14 3 355 350 343 340 338 335 324 304 296 296 293 283 284 285 272 253 260 269 263 263 255
166 173 170 178 182 185 183 178 181 192 210 230 246 262 277 261 233 216 201 235 349 347 338 332 330 324 316 310 305 296 293 297 273 279 283 282 273 253 255 268 263 256 254
167 174 173 184 197 198 187 180 183 196 214 237 253 263 281 280 249 224 200 222 325 328 324 316 308 305 304 301 296 292 293 302 282 279 276 274 271 272 262 265 264 254 257
168 176 178 184 208 199 189 185 189 201 218 236 253 269 294 310 280 239 200 234 293 310 312 304 294 291 291 292 293 292 292 293 281 273 268 268 268 266 265 264 268 258 252
168 181 191 194 200 200 200 197 199 205 218 232 247 264 290 344 18 344 228 261 283 301 309 305 296 290 287 289 291 291 288 284 279 273 271 268 264 263 264 263 267 269 256
175 193 203 208 210 207 208 205 208 211 218 228 241 255 282 238 215 213 241 264 286 294 297 299 297 291 286 283 281 280 281 278 268 267 264 259 252 260 263 263 263 265 265
193 201 210 218 218 220 222 209 212 217 220 227 233 230 252 256 256 246 267 269 273 278 281 282 284 287 288 275 259 261 268 269 270 268 263 256 254 258 260 260 262 262 263
206 205 208 218 221 223 224 225 226 227 228 233 246 248 258 265 270 278 275 254 261 265 269 268 272 277 274 273 260 243 265 270 273 267 260 251 253 256 258 258 257 259 259
220 214 213 216 221 223 222 227 227 229 234 238 245 253 260 269 269 267 268 258 258 259 271 271 273 273 275 277 280 276 274 276 273 270 265 251 253 257 259 259 257 256 256
228 228 225 218 219 222 225 224 226 228 232 237 239 246 253 260 265 270 271 278 280 279 284 286 285 286 282 279 277 277 275 270 268 269 268 251 252 256 258 259 258 257 256
240 240 234 226 222 219 221 226 227 231 237 239 243 246 248 257 268 276 280 283 284 287 287 289 290 291 289 286 281 278 276 274 272 269 268 250 247 254 257 257 257 257 256
263 259 249 234 226 219 217 220 224 234 239 252 255 260 261 267 277 287 288 287 287 289 292 292 292 292 288 287 285 283 280 278 275 274 273 267 247 249 253 255 255 255 255
311 298 279 254 232 221 219 223 232 241 255 262 271 278 274 274 281 284 285 290 297 302 303 301 302 298 295 294 292 290 288 284 282 279 276 273 269 253 250 255 257 256 254
3 3 1 291 215 205 202 202 211 241 266 277 291 294 296 299 297 299 304 315 325 324 320 317 313 308 305 303 302 300 295 289 284 281 278 274 272 270 261 253 256 259 260
35 40 49 65 107 130 134 125 112 95 71 47 28 15 14 9 360 350 350 350 348 346 343 336 325 321 315 312 307 302 297 292 288 284 279 278 276 274 274 268 255 255 259
58 61 67 75 87 104 109 105 95 82 73 65 59 56 55 53 48 44 39 28 19 16 7 355 343 333 322 319 312 304 301 295 287 284 286 288 286 282 279 279 276 264 253
68 65 67 71 80 93 100 101 96 86 79 70 62 58 56 54 51 46 38 31 21 16 6 356 347 335 329 331 317 312 303 292 296 294 301 302 297 293 289 283 280 279 273
73 72 72 71 73 77 83 87 92 93 79 73 66 57 52 49 45 39 32 24 16 4 1 356 351 337 330 332 326 320 315 310 306 318 306 297 298 299 296 296 294 289 285
78 77 80 79 80 84 92 99 102 95 87 67 56 52 46 43 39 35 27 18 10 4 357 352 350 342 332 329 334 321 317 314 317 299 310 312 307 305 305 303 299 295 291
88 86 85 84 82 82 86 89 87 81 75 61 50 47 46 40 35 27 21 15 8 2 356 350 348 340 333 330 328 321 311 308 308 308 308 307 309 307 303 300 298 296 295
97 91 89 85 80 78 79 80 82 80 78 68 56 45 38 35 31 22 14 9 5 359 354 347 342 341 335 330 326 320 315 312 307 309 309 309 305 300 299 298 296 295 295
106 97 94 89 84 81 80 79 80 82 78 68 52 38 28 24 20 18 8 7 4 359 351 345 338 337 333 329 323 317 314 311 309 306 304 306 306 304 302 298 295 294 294
Height
1507 1506 1506 1508 1510 1511 1512 1513 1513 1513 1513 1513 1512 1511 1511 1512 1512 1512 1512 1511 1511 1510 1509 1509 1510 1510 1510 1509 1509 1508 1507 1506 1505 1505 1505 1504 1504 1504 1504 1504 1504 1506 1504
1506 1505 1506 1507 1509 1511 1512 1512 1513 1513 1513 1512 1511 1511 1511 1512 1512 1512 1511 1511 1510 1509 1508 1508 1509 1509 1508 1508 1507 1507 1506 1505 1504 1503 1503 1503 1503 1503 1503 1503 1503 1504 1503
1506 1505 1505 1507 1509 1510 1511 1512 1513 1513 1513 1512 1511 1511 1512 1512 1512 1512 1511 1510 1509 1508 1507 1507 1507 1507 1507 1507 1506 1506 1505 1504 1502 1502 1502 1503 1504 1502 1502 1502 1502 1502 1502
1505 1505 1505 1506 1508 1509 1511 1512 1513 1512 1512 1511 1511 1511 1512 1512 1512 1511 1511 1510 1509 1508 1507 1506 1506 1505 1505 1505 1505 1504 1503 1502 1501 1501 1502 1503 1502 1501 1500 1500 1500 1500 1501
1506 1505 1505 1506 1507 1509 1510 1511 1512 1512 1511 1511 1510 1511 1511 1512 1512 1511 1510 1510 1509 1507 1506 1505 1504 1504 1504 1504 1504 1503 1502 1501 1500 1500 1501 1500 1500 1499 1498 1498 1498 1499 1499
1507 1506 1506 1507 1508 1509 1510 1510 1511 1511 1510 1510 1510 1510 1510 1511 1511 1511 1510 1509 1508 1506 1505 1504 1504 1503 1503 1503 1502 1502 1501 1500 1499 1499 1499 1498 1498 1497 1496 1496 1496 1496 1496
1507 1507 1507 1507 1508 1509 1509 1510 1510 1510 1509 1509 1509 1510 1510 1510 1510 1510 1509 1509 1507 1506 1504 1503 1503 1502 1502 1501 1500 1500 1499 1498 1497 1497 1496 1496 1495 1494 1493 1493 1494 1494 1494
1507 1508 1508 1508 1509 1509 1510 1510 1509 1509 1509 1508 1508 1509 1509 1509 1510 1510 1509 1508 1507 1505 1504 1503 1502 1502 1501 1500 1499 1498 1497 1496 1495 1495 1494 1493 1492 1491 1490 1490 1491 1491 1491
1507 1507 1508 1508 1509 1509 1509 1509 1509 1509 1508 1508 1507 1508 1508 1508 1509 1509 1508 1507 1506 1505 1503 1502 1501 1501 1500 1499 1498 1496 1495 1493 1492 1492 1491 1489 1488 1488 1487 1487 1488 1488 1488
1506 1507 1507 1508 1509 1509 1509 1508 1508 1507 1507 1507 1507 1507 1506 1506 1507 1507 1507 1506 1505 1503 1502 1501 1500 1500 1499 1497 1496 1494 1492 1490 1489 1489 1487 1486 1485 1484 1484 1483 1483 1484 1484
1506 1506 1506 1507 1508 1508 1508 1507 1506 1506 1506 1505 1505 1505 1505 1506 1507 1506 1505 1504 1503 1502 1501 1500 1499 1498 1496 1495 1494 1492 1490 1488 1488 1486 1484 1482 1481 1480 1480 1479 1479 1479 1479
1504 1504 1504 1505 1506 1506 1506 1506 1506 1506 1505 1505 1506 1506 1506 1506 1505 1504 1503 1503 1502 1500 1499 1498 1497 1495 1494 1493 1492 1489 1487 1486 1484 1482 1480 1478 1477 1476 1475 1474 1474 1473 1473
1501 1501 1502 1502 1503 1504 1504 1505 1505 1505 1505 1504 1504 1504 1504 1504 1503 1503 1502 1501 1500 1498 1497 1496 1494 1493 1492 1490 1488 1486 1484 1482 1480 1478 1475 1473 1472 1471 1469 1468 1467 1467 1467
1497 1498 1498 1499 1500 1501 1502 1503 1503 1503 1503 1503 1503 1503 1503 1502 1502 1501 1500 1499 1498 1497 1495 1493 1491 1490 1488 1486 1484 1482 1480 1478 1475 1472 1470 1468 1466 1465 1463 1462 1460 1460 1459
1494 1495 1495 1496 1496 1498 1499 1500 1501 1501 1502 1502 1502 1501 1501 1500 1500 1499 1498 1497 1496 1494 1492 1490 1488 1487 1485 1482 1480 1478 1475 1473 1470 1468 1464 1461 1459 1458 1456 1454 1453 1452 1451
1491 1491 1492 1492 1493 1494 1496 1497 1498 1499 1500 1500 1500 1499 1499 1498 1497 1496 1496 1495 1494 1492 1490 1488 1486 1483 1481 1478 1476 1473 1470 1468 1464 1461 1458 1455 1452 1450 1449 1447 1446 1444 1443
1488 1488 1488 1489 1489 1491 1492 1494 1495 1496 1497 1497 1497 1497 1496 1495 1495 1494 1493 1492 1491 1489 1487 1485 1482 1480 1476 1473 1470 1467 1464 1461 1458 1455 1452 1449 1445 1443 1441 1439 1438 1436 1435
1486 1485 1485 1485 1486 1487 1489 1491 1492 1493 1494 1495 1495 1495 1494 1494 1493 1492 1491 1489 1488 1486 1483 1481 1478 1476 1472 1469 1465 1462 1459 1455 1451 1448 1445 1443 1440 1437 1434 1432 1430 1428 1426
1484 1484 1484 1483 1483 1484 1486 1488 1490 1491 1492 1493 1493 1493 1492 1491 1490 1489 1488 1487 1485 1483 1481 1478 1476 1473 1469 1465 1461 1457 1454 1450 1446 1443 1440 1437 1434 1431 1428 1425 1423 1420 1419
1484 1484 1484 1483 1484 1485 1486 1487 1489 1490 1491 1491 1491 1491 1490 1489 1489 1488 1486 1485 1483 1481 1479 1476 1473 1470 1467 1462 1458 1453 1449 1445 1442 1439 1436 1433 1430 1426 1422 1419 1416 1412 1409
1485 1485 1485 1485 1486 1487 1487 1488 1489 1489 1490 1490 1490 1490 1490 1489 1488 1487 1486 1484 1482 1480 1477 1474 1470 1467 1463 1459 1453 1448 1443 1440 1437 1435 1431 1428 1425 1421 1418 1414 1410 1406 1402
1486 1486 1486 1487 1488 1489 1489 1490 1490 1490 1490 1491 1491 1491 1491 1490 1489 1487 1485 1483 1480 1478 1474 1470 1466 1462 1458 1455 1451 1443 1437 1434 1431 1429 1425 1421 1418 1414 1411 1407 1403 1399 1396
1487 1487 1488 1488 1489 1490 1491 1492 1492 1492 1492 1493 1493 1493 1492 1490 1488 1486 1484 1481 1478 1474 1470 1466 1462 1458 1455 1452 1449 1446 1438 1429 1424 1420 1418 1415 1412 1407 1403 1399 1396 1392 1388
1487 1488 1489 1490 1490 1492 1493 1494 1494 1494 1494 1494 1494 1493 1492 1490 1487 1484 1481 1478 1474 1470 1467 1463 1460 1456 1452 1448 1445 1442 1439 1432 1424 1413 1411 1409 1405 1400 1396 1391 1387 1383 1380
1488 1489 1490 1491 1492 1493 1495 1495 1495 1495 1495 1495 1494 1493 1490 1488 1485 1481 1478 1474 1471 1467 1464 1460 1457 1453 1449 1445 1442 1438 1434 1429 1424 1415 1403 1399 1397 1393 1389 1384 1379 1375 1371
1489 1490 1491 1492 1493 1494 1495 1495 1495 1495 1495 1495 1493 1491 1488 1485 1482 1478 1474 1471 1468 1465 1461 1457 1454 1450 1446 1442 1438 1434 1430 1425 1419 1413 1402 1391 1386 1383 1380 1376 1371 1367 1362